LiveATC.Net - Listen to live air traffic control over the Internet!


ICAO: KLRD  IATA: LRD   Airport: Laredo International Airport
City: Laredo   State/Province: Texas
Country: United States   Continent: North America
KLRD METAR Weather: KLRD 290956Z AUTO 00000KT 9SM CLR 11/09 A3023 RMK AO2 SLP238 T01060094
KLRD Flight Activity (FlightAware)
KLRD Airport Info   (iFlightPlanner)
KLRD VFR Sectional Chart   (iFlightPlanner) 
KLRD IFR Low Altitude Chart   (iFlightPlanner) 
KLRD IFR High Altitude Chart   (iFlightPlanner) 

KLRD Ground/Tower
Feed Status: UP   Listeners: 0
Listen in your browser - HTML5 player (in browser, HTML5)
Click here to listen with your own player (launches your MP3 player)
Archive Access: KLRD Ground/Tower
FacilityFrequency
Laredo Ground121.800
Laredo Tower120.100
Laredo UNICOM122.950

NOTICE

Unauthorized use prohibited. See LiveATC.net Terms of Service


Airport/ARTCC Code
Frequency Search
(e.g., 124.400, 128.75)
Site-wide search
 


Browse Feeds
Top 50 Feeds
HF Oceanic Feeds
Coverage Map
Bad Weather Areas

LiveATC FAQ
Offer LiveATC feed
Contact LiveATC.net
Press Inquiries

LiveATC on iPhone
LiveATC on Android

Windows Phone
Windows 8/10

LiveATC Mobile
(Mobile browser)

ATC Audio Archives
Interesting Recordings

LiveATC Forums


Home Page
About LiveATC.net
Make a Donation
Terms of Use
Privacy Policy

Canadian Air Freqs

AIRMETs/SIGMETs

FAA Airport Status
NAS Status
Arrival Demand


Server Software By:
Icecast.org
Liquidsoap